Weather in Stolbovoye

Russia / Republic of Crimea     45°21′48″N   33°29′42″E
temp.,
°C
wind,
m/s
gust,
m/s
humid.,
%
clouds,
%
prec.,
mm/h
press.,
hPa
HPBL,
m
2 august, mon
mon200:00+24sw22710 0.0 101212
03:00+23wnw11730 0.0 101211
06:00+23se11740 0.0 101220
09:00+28sse22513 0.0 1012432
12:00+31sw44410 0.0 10111130
15:00+31sw75420 0.0 1011780
18:00+29sw56520 0.0 1010479
21:00+25ssw22730 0.0 101119
3 august, tue
tue300:00+24se33740 0.0 101130
03:00+23w22780 0.0 101112
06:00+23se22750 0.0 101227
09:00+28ssw22490 0.0 1012449
12:00+31sw54375 0.0 1012846
15:00+31wsw653887 0.0 1012809
18:00+30w444351 0.0 1012643
21:00+26wnw336996 0.0 101348
4 august, wed
wed400:00+25wnw017652 0.0 101322
03:00+25n22805 0.0 101360
06:00+22ne468611 0.0 1014164
09:00+28ne45615 0.1 1015612
12:00+32nne33415 0.0 10141742
15:00+34nnw6432100 0.0 10132229
18:00+33n65267 0.0 10131305
21:00+27ne45440 0.0 101467
5 august, thu
thu500:00+24nne34594 0.0 101557
03:00+24ne346439 0.0 101572
06:00+23ene45695 0.0 1015102
09:00+30ene46445 0.0 1014657
12:00+34ene44270 0.0 10131948
15:00+34sw22310 0.0 10122462
18:00+31wsw55400 0.0 1011904
21:00+25sse33690 0.0 101246
6 august, fri
fri600:00+24ene33621 0.0 101039
03:00+23ne34660 0.0 101058
06:00+22ene44690 0.0 100984
09:00+29ene46455 0.0 1008582
12:00+34ene34327 0.0 10061415
15:00+35wsw86339 0.0 10051351
18:00+35se353621 0.0 10031092
21:00+26se35690 0.2 100477